Location: ??
(34.7893°N, 135.7830°E)
Time: 19:30:14
(UTC+00:00)

Daily predictions for brighter satellites

Satellite Brightness Start Highest point End
(mag) Time Altitude Azimuth Time Altitude Azimuth Time Altitude Azimuth
FALCON 9 R/B 3.6 18:34:31 51° ESE 18:34:31 51° ESE 18:47:27 10° ENE
CZ-3B R/B 4.4 18:57:05 29° SSW 18:57:05 29° SSW 19:04:44 10° SSE
SL-16 R/B 4.2 19:01:09 17° NNE 19:03:45 23° ENE 19:08:09 10° ESE
Cosmos 2082 4.5 19:10:27 45° NE 19:10:27 45° NE 19:14:25 10° NNE
Lacrosse 5 3.6 19:09:30 26° NE 19:09:30 26° NE 19:13:35 10° E
Cosmos 2237 Rocket 2.4 19:19:24 62° SSE 19:19:24 62° SSE 19:24:02 10° SSE
GEOS 3 Rocket 4.4 19:13:47 10° ESE 19:18:35 45° NE 19:19:04 43° NE
USA 234 4.4 19:17:50 10° NNE 19:21:36 28° N 19:21:36 28° N
ATLAS 5 CENTAUR R/B 4.3 19:28:05 10° NNE 19:28:05 10° NNE 19:28:08 10° NNE
Aureole 1 Rocket 4.4 19:32:08 29° N 19:34:52 57° ENE 19:41:37 10° SSE
COBE Rocket 4.1 19:32:23 10° SSE 19:37:18 69° ENE 19:38:42 45° N
BREEZE-M DEB (TANK) 3.1 19:39:38 69° WSW 19:39:56 71° SW 19:43:13 10° SE
ALOS 4.0 19:39:18 10° NNE 19:43:30 32° E 19:47:41 10° SSE
Cosmos 1980 4.1 19:48:55 45° SW 19:48:55 45° SW 19:53:32 10° S
BREEZE-M DEB (TANK) 3.6 19:49:54 37° ESE 19:49:54 37° ESE 19:51:48 10° ESE
Cosmos 2263 Rocket 4.3 19:51:11 10° SSE 19:55:48 27° ESE 20:00:25 10° NE
Gbstr 26 Del rocket 3.0 19:57:26 54° S 19:57:26 54° S 20:00:35 10° SE
Cosmos 2034 Rocket 3.9 19:58:14 10° S 20:04:29 83° W 20:10:52 10° N
Cosmos 1933 Rocket 3.7 20:00:55 10° S 20:05:13 72° E 20:09:32 10° N
Cosmos 2297 Rocket 4.1 20:09:04 14° NNW 20:09:04 14° NNW 20:10:03 10° N
Cosmos 2227 Rocket 3.9 20:12:14 16° NNW 20:12:14 16° NNW 20:13:43 10° N
MOS 1-B 4.3 20:03:44 10° NNE 20:09:32 85° ESE 20:15:19 10° SSW
STARLINK-59 4.4 20:10:33 31° N 20:11:59 44° NE 20:15:50 10° ESE
SJ-12 3.8 20:08:14 10° NNE 20:12:23 87° ESE 20:16:28 10° SSW
STARLINK-55 4.3 20:13:41 30° NNW 20:15:16 47° NE 20:19:09 10° ESE
STARLINK-28 4.2 20:15:21 30° NNW 20:16:59 50° NE 20:20:53 10° ESE
PAYLOAD B 4.4 20:11:50 10° NNE 20:17:22 77° ESE 20:22:53 10° S
PSLV R/B 3.9 20:14:22 10° N 20:18:21 54° WNW 20:22:22 10° SSW
Cosmos 1624 Rocket 3.9 20:13:28 10° SSW 20:18:44 69° WNW 20:24:03 10° NNE
CZ-4B R/B 3.9 20:13:25 10° NNE 20:18:55 58° ESE 20:24:27 10° S
STARLINK-53 4.1 20:18:29 29° NNW 20:20:15 53° NE 20:24:12 10° ESE
Cosmos 1484 Rocket 3.0 20:17:29 10° N 20:21:17 46° WNW 20:25:00 10° SSW
STARLINK-54 4.0 20:20:08 29° NNW 20:21:58 56° NE 20:25:55 10° ESE
Cosmos 2056 Rocket 3.4 20:18:24 10° SSW 20:23:27 64° WNW 20:28:32 10° N
Cosmos 724 4.3 20:18:02 10° SW 20:24:02 62° WNW 20:29:59 10° NNE
STARLINK-34 3.9 20:23:18 28° NNW 20:25:16 61° NE 20:29:14 10° ESE
COSMO-SKYMED 1 2.4 20:21:50 10° S 20:26:10 78° WSW 20:30:31 10° NNW
CZ-4C R/B 3.4 20:20:21 10° NNW 20:27:50 64° ENE 20:36:08 10° SE
STARLINK-61 3.5 20:26:12 34° NW 20:27:53 75° SW 20:31:53 10° SE
STARLINK-81 3.9 20:26:14 25° NNW 20:28:24 58° NE 20:32:21 10° ESE
Okean O Rocket 1.8 20:24:25 10° NNE 20:28:48 76° ESE 20:33:11 10° S
STARLINK-24 3.7 20:28:03 26° NW 20:30:13 67° NE 20:34:13 10° SE
STARLINK-77 3.8 20:29:25 24° NNW 20:31:42 63° NE 20:35:41 10° SE
FENGYUN 3A 3.5 20:27:23 10° N 20:32:47 79° WNW 20:38:08 10° SSW
STARLINK-25 3.8 20:30:48 23° NW 20:33:09 65° NE 20:37:07 10° SE
Cosmos 2242 Rocket 3.5 20:28:54 10° N 20:33:28 82° W 20:37:57 10° S
Cosmos 1190 Rocket 4.1 20:29:17 10° NNW 20:34:31 79° ENE 20:39:44 10° SSE
STARLINK-71 3.6 20:32:49 24° NW 20:35:10 77° NE 20:39:11 10° SE
Cosmos 1241 Rocket 4.4 20:30:41 12° NNW 20:36:24 81° WSW 20:42:36 10° SSE
STARLINK-79 3.7 20:33:59 22° NW 20:36:27 71° NE 20:40:27 10° SE
Cosmos 1470 Rocket 4.2 20:33:02 10° SW 20:37:03 33° WNW 20:41:07 10° NNW
STARLINK-78 3.6 20:35:48 22° NW 20:38:20 74° NE 20:42:20 10° SE
Geosat 4.3 20:34:50 10° S 20:39:38 47° WSW 20:43:43 14° NW
STARLINK-57 3.5 20:37:29 21° NW 20:40:03 81° NE 20:44:05 10° SE
Cosmos 1092 Rocket 4.1 20:34:01 10° N 20:40:13 82° E 20:46:20 10° S
STARLINK-49 3.6 20:38:57 20° NW 20:41:37 80° NE 20:45:38 10° SE
STARLINK-27 3.5 20:40:21 20° NW 20:43:05 83° NE 20:47:05 10° SE
SL-23 DEB 3.4 20:39:46 10° SW 20:43:15 78° SE 20:46:23 10° NE
Meteor 1-27 Rocket 4.1 20:37:58 10° NNW 20:43:33 44° W 20:49:06 10° SSW
STARLINK-74 3.5 20:42:08 19° NW 20:44:56 86° NE 20:48:57 10° SE
Cosmos 1862 Rocket 4.2 20:42:04 13° NNW 20:45:35 33° W 20:49:36 10° SSW
STARLINK-39 3.5 20:43:44 19° NW 20:46:35 89° ENE 20:50:36 10° SE
Cosmos 1420 Rocket 4.0 20:41:43 10° SSW 20:46:56 88° WNW 20:52:09 10° NNE
Cosmos 1703 Rocket 3.7 20:43:26 10° N 20:47:55 81° E 20:52:19 10° S
SL-16 R/B 2.6 20:43:05 12° NW 20:48:02 44° WSW 20:53:22 10° S
STARLINK 3.5 20:45:19 18° NW 20:48:14 87° SW 20:52:15 10° SE
USA 116 3.8 20:44:21 10° S 20:48:16 72° W 20:52:45 10° NNW
Cosmos 1812 3.8 20:47:31 19° WNW 20:48:59 24° W 20:52:06 10° SW
STARLINK-42 3.5 20:47:04 18° NW 20:50:00 79° SW 20:54:01 10° SE
STARLINK-75 3.6 20:48:08 18° NW 20:51:07 68° SW 20:55:10 10° SE
STARLINK-21 3.5 20:48:32 17° NW 20:51:34 80° SW 20:55:34 10° SE
Lacrosse 5 2.2 20:48:44 16° NW 20:52:30 48° SW 20:57:20 10° SSE
STARLINK-41 3.6 20:49:49 16° NW 20:53:01 78° SW 20:57:07 10° SE
STARLINK-45 3.6 20:50:24 17° NW 20:53:25 68° SW 20:57:24 10° SE
STARLINK-64 3.6 20:51:08 16° NW 20:54:23 75° SW 20:58:29 10° SE
STARLINK-37 3.6 20:51:54 16° NW 20:55:06 69° SW 20:59:10 10° SE
STARLINK-76 3.5 20:53:18 15° NW 20:56:31 71° SW 21:00:30 10° SE
STARLINK 3.6 20:54:44 15° NW 20:58:00 68° SW 21:01:59 10° SE
STARLINK-32 3.6 20:56:28 14° NW 20:59:48 65° SW 21:03:46 10° SE
Cosmos 1869 Rocket 3.4 20:55:34 10° S 20:59:52 77° W 21:04:12 10° N
Orbus 7S? 3.2 20:57:20 10° SSW 21:00:52 60° SE 21:03:19 10° NE
Longmarch 3A Rocket 3.9 21:00:32 10° SSW 21:01:20 11° S 21:02:22 10° SSE
Helios 1A Rocket 3.2 20:57:38 10° N 21:01:27 43° WNW 21:05:15 10° SW
STARLINK-40 3.6 20:58:04 14° NW 21:01:28 63° SW 21:05:25 10° SSE
STARLINK-44 3.7 20:59:40 13° NW 21:03:07 60° SW 21:07:03 10° SSE
Meteor 1-20 Rocket 4.4 20:58:22 10° SSW 21:04:03 57° W 21:09:50 10° N
STARLINK 3.7 21:00:51 12° NW 21:04:33 66° SW 21:08:38 10° SE
Meteor 1-18 Rocket 4.4 21:00:04 10° N 21:05:38 75° E 21:11:11 10° SSE
STARLINK-36 3.8 21:02:51 12° NW 21:06:24 55° SW 21:10:20 10° SSE
Cosmos 1452 Rocket 3.5 21:05:08 10° SSW 21:10:21 69° WNW 21:15:38 10° NNE
STARLINK-35 3.9 21:07:37 11° WNW 21:11:21 49° SW 21:15:13 10° SSE
Radarsat Rocket 4.2 21:05:57 10° N 21:12:08 75° WNW 21:19:02 10° SSW
NOAA 6 4.4 21:08:08 10° N 21:12:54 40° WNW 21:17:40 10° SW
STARLINK-51 4.0 21:09:12 10° WNW 21:13:00 46° SW 21:16:51 10° SSE
STARLINK-30 4.1 21:10:50 10° WNW 21:14:40 45° SW 21:18:30 10° SSE
SMAP 3.2 21:10:03 10° NNE 21:14:43 81° ESE 21:19:21 10° S
STARLINK-33 4.1 21:12:27 10° WNW 21:16:17 43° SW 21:20:05 10° SSE
H-2A R/B 2.7 21:13:16 10° N 21:17:00 89° W 21:20:45 10° SSW
Okean 1 3.2 21:13:13 10° N 21:17:11 82° W 21:21:09 10° S
STARLINK-50 4.2 21:14:09 10° WNW 21:17:56 41° SW 21:21:43 10° SSE
ALOS 3.5 21:17:13 10° NNW 21:20:41 21° WNW 21:24:08 10° WSW
STARLINK-56 4.3 21:17:31 10° WNW 21:21:15 38° SW 21:24:59 10° SSE
ADEOS Rocket 3.9 21:14:15 10° SSE 21:21:32 65° ENE 21:28:11 10° N
PSLV R/B 3.8 21:19:43 10° WNW 21:21:49 24° NNW 21:23:56 10° NE
Starlink (trailer) 4.3 21:19:10 10° WNW 21:22:53 36° SW 21:26:35 10° SSE
STARLINK-38 4.4 21:20:51 10° WNW 21:24:31 35° SW 21:28:11 10° SSE
CORIOLIS 4.4 21:21:28 10° NNE 21:26:54 80° ESE 21:32:16 10° S
